2015-10-06 00:00:54 r, 20.41m,0000000000Hz,0000797769c,0000001.731s, 020.3C,00002191
2015-10-06 00:10:54 r, 20.59m,0000000001Hz,0000937743c,0000002.035s, 020.6C,00002191
2015-10-06 00:20:54 r, 20.84m,0000000001Hz,0001178892c,0000002.558s, 020.6C,00002191
2015-10-06 00:30:55 r, 20.23m,0000000001Hz,0000675803c,0000001.467s, 020.3C,00002191
2015-10-06 00:40:54 r, 20.06m,0000000001Hz,0000574936c,0000001.248s, 020.3C,00002191
2015-10-06 00:50:54 r, 20.20m,0000000001Hz,0000652934c,0000001.417s, 020.3C,00002191
2015-10-06 01:00:55 r, 20.49m,0000000000Hz,0000855219c,0000001.856s, 020.6C,00002191
2015-10-06 01:10:54 r, 20.64m,0000000000Hz,0000976507c,0000002.119s, 020.6C,00002191
2015-10-06 01:20:54 r, 20.11m,0000000001Hz,0000603744c,0000001.310s, 020.6C,00002191
2015-10-06 01:30:55 r, 20.32m,0000000001Hz,0000729447c,0000001.583s, 020.6C,00002191
2015-10-06 01:40:54 r, 20.17m,0000000000Hz,0000637177c,0000001.383s, 020.6C,00002191
2015-10-06 01:50:54 r, 20.22m,0000000000Hz,0000664101c,0000001.441s, 020.6C,00002191
2015-10-06 02:00:54 r, 19.96m,0000000000Hz,0000524907c,0000001.139s, 020.3C,00002191
2015-10-06 02:10:53 r, 20.43m,0000000000Hz,0000808371c,0000001.754s, 020.3C,00002191
2015-10-06 02:20:54 r, 20.52m,0000000000Hz,0000883162c,0000001.917s, 019.9C,00002191
2015-10-06 02:30:54 r, 20.22m,0000000000Hz,0000668015c,0000001.450s, 019.6C,00002191
2015-10-06 02:40:54 r, 20.10m,0000000001Hz,0000598048c,0000001.298s, 019.0C,00002191
2015-10-06 02:50:54 r, 20.06m,0000000001Hz,0000573834c,0000001.245s, 019.0C,00002191
2015-10-06 03:00:55 r, 20.18m,0000000001Hz,0000641204c,0000001.392s, 019.0C,00002191
2015-10-06 03:10:53 r, 20.22m,0000000001Hz,0000670812c,0000001.456s, 018.6C,00002191
2015-10-06 03:20:53 r, 19.64m,0000000002Hz,0000392704c,0000000.852s, 018.6C,00002191
2015-10-06 03:30:54 r, 19.73m,0000000001Hz,0000424238c,0000000.921s, 018.6C,00002191
2015-10-06 03:40:54 r, 19.67m,0000000001Hz,0000404096c,0000000.877s, 019.0C,00002191
2015-10-06 03:50:54 r, 19.62m,0000000001Hz,0000386191c,0000000.838s, 019.0C,00002191
2015-10-06 04:00:53 r, 19.62m,0000000001Hz,0000387039c,0000000.840s, 019.3C,00002191
2015-10-06 04:10:54 r, 19.63m,0000000001Hz,0000389037c,0000000.844s, 019.6C,00002191
2015-10-06 04:20:53 r, 19.60m,0000000001Hz,0000380246c,0000000.825s, 019.6C,00002191
2015-10-06 04:30:53 r, 19.49m,0000000001Hz,0000343527c,0000000.746s, 019.6C,00002191
2015-10-06 04:40:54 r, 19.50m,0000000002Hz,0000347391c,0000000.754s, 019.9C,00002191
2015-10-06 04:50:54 r, 19.42m,0000000001Hz,0000322778c,0000000.700s, 019.6C,00002191
2015-10-06 05:00:55 r, 19.43m,0000000001Hz,0000326556c,0000000.709s, 019.6C,00002191
2015-10-06 05:10:54 r, 19.36m,0000000002Hz,0000303415c,0000000.658s, 019.6C,00002191
2015-10-06 05:20:54 r, 19.36m,0000000001Hz,0000303251c,0000000.658s, 019.6C,00002191
2015-10-06 05:30:55 r, 19.30m,0000000001Hz,0000289061c,0000000.627s, 019.3C,00002191
2015-10-06 05:40:53 r, 19.41m,0000000001Hz,0000319696c,0000000.694s, 019.3C,00002191
2015-10-06 05:50:53 r, 19.44m,0000000001Hz,0000328427c,0000000.713s, 019.0C,00002191
2015-10-06 06:00:56 r, 19.23m,0000000002Hz,0000270860c,0000000.588s, 019.0C,00002191
2015-10-06 06:10:54 r, 19.23m,0000000001Hz,0000271582c,0000000.589s, 018.6C,00002191
2015-10-06 06:20:54 r, 19.15m,0000000001Hz,0000251556c,0000000.546s, 018.3C,00002191
2015-10-06 06:30:55 r, 18.43m,0000000003Hz,0000128648c,0000000.279s, 018.0C,00002191
2015-10-06 06:40:54 r, 17.24m,0000000011Hz,0000043018c,0000000.093s, 017.4C,00002191
2015-10-06 06:50:54 r, 15.73m,0000000043Hz,0000010793c,0000000.023s, 016.7C,00002191
2015-10-06 07:00:54 r, 13.71m,0000000276Hz,0000000000c,0000000.000s, 016.1C,00002191
2015-10-06 07:10:53 r, 11.50m,0000002124Hz,0000000000c,0000000.000s, 015.1C,00002191
2015-10-06 07:20:54 r, 09.56m,0000012735Hz,0000000000c,0000000.000s, 014.8C,00002191
2015-10-06 07:30:53 r, 08.10m,0000048484Hz,0000000000c,0000000.000s, 014.5C,00002191
2015-10-06 07:40:54 r, 07.18m,0000113954Hz,0000000000c,0000000.000s, 014.1C,00002191
2015-10-06 07:50:54 r, 06.56m,0000201222Hz,0000000000c,0000000.000s, 014.1C,00002191
2015-10-06 08:00:54 r, 05.97m,0000346861Hz,0000000000c,0000000.000s, 013.8C,00002191
2015-10-06 08:10:54 r, 00.00m,0000490776Hz,0000000000c,0000000.000s, 014.5C,00002191
2015-10-06 08:20:54 r, 00.00m,0000596795Hz,0000000000c,0000000.000s, 015.7C,00002191
2015-10-06 08:30:54 r, 00.00m,0000596585Hz,0000000000c,0000000.000s, 017.4C,00002191
2015-10-06 08:40:53 r, 00.00m,0000596561Hz,0000000000c,0000000.000s, 018.3C,00002191
2015-10-06 08:50:54 r, 00.00m,0000596408Hz,0000000000c,0000000.000s, 019.3C,00002191
2015-10-06 09:00:54 r, 00.00m,0000596359Hz,0000000000c,0000000.000s, 019.9C,00002191
2015-10-06 09:10:54 r, 00.00m,0000596389Hz,0000000000c,0000000.000s, 021.2C,00002191
2015-10-06 09:20:54 r, 00.00m,0000596250Hz,0000000000c,0000000.000s, 021.5C,00002191
2015-10-06 09:30:54 r, 00.00m,0000596218Hz,0000000000c,0000000.000s, 021.2C,00002191
2015-10-06 09:40:54 r, 00.00m,0000596211Hz,0000000000c,0000000.000s, 020.9C,00002191
2015-10-06 09:50:54 r, 00.00m,0000596333Hz,0000000000c,0000000.000s, 020.9C,00002191
2015-10-06 10:00:54 r, 00.00m,0000596322Hz,0000000000c,0000000.000s, 021.2C,00002191
2015-10-06 10:10:55 r, 00.00m,0000596388Hz,0000000000c,0000000.000s, 021.5C,00002191
2015-10-06 10:20:54 r, 00.00m,0000596168Hz,0000000000c,0000000.000s, 022.2C,00002191
2015-10-06 10:30:54 r, 00.00m,0000596153Hz,0000000000c,0000000.000s, 022.8C,00002191
2015-10-06 10:40:55 r, 00.00m,0000596000Hz,0000000000c,0000000.000s, 023.5C,00002191
2015-10-06 10:50:54 r, 00.00m,0000596002Hz,0000000000c,0000000.000s, 024.4C,00002191
2015-10-06 11:00:53 r, 00.00m,0000595703Hz,0000000000c,0000000.000s, 026.4C,00002191
2015-10-06 11:10:54 r, 00.00m,0000595584Hz,0000000000c,0000000.000s, 028.0C,00002191
2015-10-06 11:20:54 r, 00.00m,0000595319Hz,0000000000c,0000000.000s, 029.0C,00002191
2015-10-06 11:30:54 r, 00.00m,0000595212Hz,0000000000c,0000000.000s, 029.3C,00002191
2015-10-06 11:40:56 r, 00.00m,0000595409Hz,0000000000c,0000000.000s, 028.6C,00002191
2015-10-06 11:50:54 r, 00.00m,0000595205Hz,0000000000c,0000000.000s, 029.6C,00002191
2015-10-06 12:00:54 r, 00.00m,0000595200Hz,0000000000c,0000000.000s, 030.6C,00002191
2015-10-06 12:10:55 r, 00.00m,0000595199Hz,0000000000c,0000000.000s, 031.9C,00002191
2015-10-06 12:20:54 r, 00.00m,0000595169Hz,0000000000c,0000000.000s, 031.9C,00002191
2015-10-06 12:30:54 r, 00.00m,0000595038Hz,0000000000c,0000000.000s, 032.5C,00002191
2015-10-06 12:40:54 r, 00.00m,0000594969Hz,0000000000c,0000000.000s, 033.1C,00002191
2015-10-06 12:50:54 r, 00.00m,0000595007Hz,0000000000c,0000000.000s, 033.5C,00002191
2015-10-06 13:00:54 r, 00.00m,0000594827Hz,0000000000c,0000000.000s, 033.8C,00002191
2015-10-06 13:10:54 r, 00.00m,0000594750Hz,0000000000c,0000000.000s, 034.1C,00002191
2015-10-06 13:20:54 r, 00.00m,0000594729Hz,0000000000c,0000000.000s, 034.1C,00002191
2015-10-06 13:30:54 r, 00.00m,0000594744Hz,0000000000c,0000000.000s, 034.8C,00002191
2015-10-06 13:40:54 r, 00.00m,0000594682Hz,0000000000c,0000000.000s, 034.4C,00002191
2015-10-06 13:50:54 r, 00.00m,0000594718Hz,0000000000c,0000000.000s, 034.4C,00002191
2015-10-06 14:00:54 r, 00.00m,0000594698Hz,0000000000c,0000000.000s, 034.8C,00002191
2015-10-06 14:10:54 r, 00.00m,0000594749Hz,0000000000c,0000000.000s, 034.4C,00002191
2015-10-06 14:20:54 r, 00.00m,0000594639Hz,0000000000c,0000000.000s, 034.8C,00002191
2015-10-06 14:30:54 r, 00.00m,0000594694Hz,0000000000c,0000000.000s, 035.1C,00002191
2015-10-06 14:40:54 r, 00.00m,0000594770Hz,0000000000c,0000000.000s, 034.4C,00002191
2015-10-06 14:50:54 r, 00.00m,0000594907Hz,0000000000c,0000000.000s, 034.4C,00002191
2015-10-06 15:00:54 r, 00.00m,0000594749Hz,0000000000c,0000000.000s, 034.4C,00002191
2015-10-06 15:10:54 r, 00.00m,0000594817Hz,0000000000c,0000000.000s, 034.1C,00002191
2015-10-06 15:20:54 r, 00.00m,0000594810Hz,0000000000c,0000000.000s, 033.8C,00002191
2015-10-06 15:30:54 r, 00.00m,0000594931Hz,0000000000c,0000000.000s, 033.5C,00002191
2015-10-06 15:40:54 r, 00.00m,0000594860Hz,0000000000c,0000000.000s, 033.1C,00002191
2015-10-06 15:50:54 r, 00.00m,0000595021Hz,0000000000c,0000000.000s, 032.5C,00002191
2015-10-06 16:00:54 r, 00.00m,0000595145Hz,0000000000c,0000000.000s, 032.2C,00002191
2015-10-06 16:10:54 r, 00.00m,0000595187Hz,0000000000c,0000000.000s, 032.2C,00002191
2015-10-06 16:20:54 r, 00.00m,0000595159Hz,0000000000c,0000000.000s, 031.2C,00002191
2015-10-06 16:30:54 r, 00.00m,0000595200Hz,0000000000c,0000000.000s, 030.6C,00002191
2015-10-06 16:40:55 r, 00.00m,0000595233Hz,0000000000c,0000000.000s, 030.2C,00002191
2015-10-06 16:50:54 r, 00.00m,0000595271Hz,0000000000c,0000000.000s, 029.6C,00002191
2015-10-06 17:00:54 r, 00.00m,0000595312Hz,0000000000c,0000000.000s, 029.3C,00002191
2015-10-06 17:10:54 r, 00.00m,0000595472Hz,0000000000c,0000000.000s, 029.0C,00002191
2015-10-06 17:20:54 r, 00.00m,0000595484Hz,0000000000c,0000000.000s, 028.3C,00002191
2015-10-06 17:30:54 r, 00.00m,0000595469Hz,0000000000c,0000000.000s, 028.3C,00002191
2015-10-06 17:40:55 r, 00.00m,0000595578Hz,0000000000c,0000000.000s, 027.7C,00002191
2015-10-06 17:50:54 r, 00.00m,0000595678Hz,0000000000c,0000000.000s, 027.3C,00002191
2015-10-06 18:00:54 r, 00.00m,0000595654Hz,0000000000c,0000000.000s, 026.7C,00002191
2015-10-06 18:10:55 r, 00.00m,0000570939Hz,0000000000c,0000000.000s, 026.1C,00002191
2015-10-06 18:20:54 r, 00.00m,0000466380Hz,0000000000c,0000000.000s, 025.1C,00002191
2015-10-06 18:30:54 r, 06.00m,0000336849Hz,0000000000c,0000000.000s, 024.4C,00002191
2015-10-06 18:40:54 r, 06.42m,0000228261Hz,0000000000c,0000000.000s, 023.5C,00002191
2015-10-06 18:50:54 r, 07.04m,0000129159Hz,0000000000c,0000000.000s, 022.2C,00002191
2015-10-06 19:00:54 r, 08.01m,0000052792Hz,0000000000c,0000000.000s, 021.2C,00002191
2015-10-06 19:10:54 r, 09.51m,0000013258Hz,0000000000c,0000000.000s, 020.6C,00002191
2015-10-06 19:20:54 r, 11.61m,0000001922Hz,0000000000c,0000000.000s, 019.6C,00002191
2015-10-06 19:30:54 r, 13.79m,0000000259Hz,0000000000c,0000000.000s, 019.3C,00002191
2015-10-06 19:40:54 r, 15.88m,0000000038Hz,0000012298c,0000000.027s, 018.6C,00002191
2015-10-06 19:50:54 r, 17.55m,0000000008Hz,0000057414c,0000000.125s, 018.3C,00002191
2015-10-06 20:00:54 r, 18.94m,0000000002Hz,0000207313c,0000000.450s, 017.7C,00002191
2015-10-06 20:10:55 r, 19.94m,0000000001Hz,0000512438c,0000001.112s, 017.4C,00002191
2015-10-06 20:20:54 r, 20.40m,0000000001Hz,0000785260c,0000001.704s, 017.0C,00002191
2015-10-06 20:30:54 r, 20.53m,0000000001Hz,0000881958c,0000001.914s, 016.7C,00002191
2015-10-06 20:40:54 r, 20.56m,0000000000Hz,0000907413c,0000001.969s, 016.4C,00002191
2015-10-06 20:50:54 r, 20.57m,0000000000Hz,0000914785c,0000001.985s, 016.1C,00002191
2015-10-06 21:00:54 r, 20.62m,0000000001Hz,0000955144c,0000002.073s, 015.7C,00002191
2015-10-06 21:10:54 r, 20.63m,0000000001Hz,0000964123c,0000002.092s, 015.4C,00002191
2015-10-06 21:20:54 r, 20.64m,0000000000Hz,0000967565c,0000002.100s, 015.1C,00002191
2015-10-06 21:30:54 r, 20.64m,0000000001Hz,0000971363c,0000002.108s, 014.8C,00002191
2015-10-06 21:40:54 r, 20.66m,0000000001Hz,0000992681c,0000002.154s, 014.8C,00002191
2015-10-06 21:50:54 r, 20.68m,0000000001Hz,0001008465c,0000002.189s, 014.5C,00002191
2015-10-06 22:00:54 r, 20.69m,0000000000Hz,0001021448c,0000002.217s, 014.1C,00002191
2015-10-06 22:10:54 r, 20.72m,0000000000Hz,0001048824c,0000002.276s, 014.1C,00002191
2015-10-06 22:20:54 r, 20.74m,0000000001Hz,0001067986c,0000002.318s, 014.1C,00002191
2015-10-06 22:30:54 r, 20.74m,0000000000Hz,0001068321c,0000002.318s, 014.1C,00002191
2015-10-06 22:40:54 r, 20.75m,0000000000Hz,0001080326c,0000002.344s, 013.8C,00002191
2015-10-06 22:50:54 r, 20.75m,0000000001Hz,0001075873c,0000002.335s, 013.8C,00002191
2015-10-06 23:00:54 r, 20.73m,0000000000Hz,0001059434c,0000002.299s, 013.5C,00002191
2015-10-06 23:10:54 r, 20.73m,0000000001Hz,0001063661c,0000002.308s, 013.5C,00002191
2015-10-06 23:20:54 r, 20.66m,0000000000Hz,0000987695c,0000002.143s, 013.2C,00002191
2015-10-06 23:30:54 r, 20.47m,0000000000Hz,0000831565c,0000001.805s, 013.2C,00002191
2015-10-06 23:40:54 r, 20.33m,0000000001Hz,0000725753c,0000001.575s, 013.2C,00002191
2015-10-06 23:50:54 r, 19.75m,0000000001Hz,0000430950c,0000000.935s, 013.2C,00002191
